When you browse on this site, cookies collect data to enhance your experience and personalize the content and advertising you see.
Visit our Privacy Policy to learn more. By continuing to use the site, you agree to this use of cookies and data.
  • In Portugal
  • List of Countries
  • For 7 days
  • Water Temperature
  • Satellite Maps
  • Weather Map
  • Weather Widgets
  • user-avatar
    Login

    Hourly Weather Eisenstadt

    Today, 18 July, Thursday

    Time Temperature Precipitation Wind Pressure Humidity
    00:00 +16°C° 0.6 mm 1 mps 720 mmHg 87%
    01:00 +16°C° 0 mm 1 mps 720 mmHg 88%
    02:00 +16°C° 0 mm 1 mps 720 mmHg 89%
    03:00 +15°C° 0 mm 1 mps 719 mmHg 90%
    04:00 +15°C° 0 mm 1 mps 719 mmHg 91%
    05:00 +16°C° 0 mm 1 mps 719 mmHg 88%
    06:00 +18°C° 0 mm 1 mps 720 mmHg 86%
    07:00 +19°C° 0 mm 1 mps 720 mmHg 78%
    08:00 +21°C° 0.1 mm 1 mps 720 mmHg 71%
    09:00 +22°C° 0.1 mm 1 mps 721 mmHg 64%
    10:00 +24°C° 0.1 mm 1 mps 721 mmHg 57%
    11:00 +25°C° 0.2 mm 1 mps 721 mmHg 53%
    12:00 +26°C° 0.2 mm 1 mps 721 mmHg 50%
    13:00 +26°C° 0.2 mm 1 mps 721 mmHg 47%
    14:00 +27°C° 0.1 mm 1 mps 721 mmHg 46%
    15:00 +27°C° 0.1 mm 1 mps 721 mmHg 45%
    16:00 +27°C° 0.1 mm 1 mps 721 mmHg 44%
    17:00 +25°C° 0.1 mm 1 mps 721 mmHg 52%
    18:00 +23°C° 0.1 mm 1 mps 720 mmHg 60%
    19:00 +21°C° 0.1 mm 2 mps 720 mmHg 69%
    20:00 +20°C° 0 mm 2 mps 721 mmHg 69%
    21:00 +19°C° 0 mm 2 mps 721 mmHg 70%
    22:00 +18°C° 0 mm 2 mps 722 mmHg 70%
    23:00 +17°C° 0 mm 2 mps 722 mmHg 69%

    Tomorrow, 19 July, Friday

    Time Temperature Precipitation Wind Pressure Humidity
    00:00 +18°C° 0 mm 1 mps 722 mmHg 68%
    01:00 +16°C° 0 mm 1 mps 722 mmHg 67%
    02:00 +16°C° 0 mm 1 mps 722 mmHg 66%
    03:00 +16°C° 0 mm 1 mps 722 mmHg 64%
    04:00 +16°C° 0 mm 1 mps 722 mmHg 63%
    05:00 +19°C° 0 mm 1 mps 722 mmHg 61%
    06:00 +19°C° 0 mm 0 mps 723 mmHg 60%
    07:00 +20°C° 0 mm 0 mps 723 mmHg 58%
    08:00 +22°C° 0 mm 0 mps 723 mmHg 53%
    09:00 +25°C° 0 mm 1 mps 723 mmHg 48%
    10:00 +27°C° 0 mm 1 mps 724 mmHg 43%
    11:00 +27°C° 0 mm 2 mps 723 mmHg 43%
    12:00 +28°C° 0 mm 2 mps 723 mmHg 44%
    13:00 +28°C° 0 mm 2 mps 723 mmHg 45%
    14:00 +28°C° 0.1 mm 2 mps 723 mmHg 47%
    15:00 +27°C° 0.1 mm 2 mps 723 mmHg 48%
    16:00 +27°C° 0.1 mm 2 mps 723 mmHg 50%
    17:00 +26°C° 0.1 mm 2 mps 723 mmHg 57%
    18:00 +25°C° 0.1 mm 2 mps 723 mmHg 64%
    19:00 +23°C° 0.1 mm 2 mps 723 mmHg 70%
    20:00 +22°C° 0.2 mm 1 mps 723 mmHg 74%
    21:00 +21°C° 0.2 mm 1 mps 723 mmHg 78%
    22:00 +20°C° 0.2 mm 1 mps 723 mmHg 81%
    23:00 +19°C° 0.1 mm 1 mps 723 mmHg 83%

    Day after tomorrow, 20 July, Saturday

    Time Temperature Precipitation Wind Pressure Humidity
    00:00 +18°C° 0.1 mm 2 mps 723 mmHg 85%
    01:00 +18°C° 0.1 mm 2 mps 723 mmHg 87%
    02:00 +19°C° 0 mm 1 mps 723 mmHg 86%
    03:00 +18°C° 0 mm 1 mps 723 mmHg 86%
    04:00 +18°C° 0 mm 1 mps 723 mmHg 86%
    05:00 +20°C° 0 mm 1 mps 724 mmHg 82%
    06:00 +21°C° 0 mm 1 mps 724 mmHg 77%
    07:00 +21°C° 0 mm 0 mps 724 mmHg 73%
    08:00 +24°C° 0 mm 1 mps 724 mmHg 66%
    09:00 +26°C° 0 mm 1 mps 725 mmHg 59%
    10:00 +27°C° 0 mm 2 mps 725 mmHg 53%
    11:00 +28°C° 0 mm 3 mps 725 mmHg 48%
    12:00 +29°C° 0 mm 3 mps 725 mmHg 44%
    13:00 +30°C° 0 mm 4 mps 724 mmHg 39%
    14:00 +30°C° 0 mm 4 mps 724 mmHg 40%
    15:00 +30°C° 0 mm 4 mps 724 mmHg 41%
    16:00 +30°C° 0 mm 4 mps 724 mmHg 42%
    17:00 +29°C° 0 mm 3 mps 724 mmHg 49%
    18:00 +27°C° 0 mm 3 mps 724 mmHg 57%
    19:00 +25°C° 0 mm 2 mps 724 mmHg 64%
    20:00 +24°C° 0 mm 2 mps 724 mmHg 66%
    21:00 +24°C° 0 mm 2 mps 724 mmHg 68%
    22:00 +23°C° 0 mm 2 mps 725 mmHg 70%
    23:00 +21°C° 0 mm 2 mps 725 mmHg 71%

    21 July, Sunday

    Time Temperature Precipitation Wind Pressure Humidity
    00:00 +21°C° 0 mm 2 mps 725 mmHg 72%
    01:00 +22°C° 0 mm 1 mps 725 mmHg 73%
    02:00 +22°C° 0 mm 1 mps 725 mmHg 72%
    03:00 +21°C° 0 mm 1 mps 724 mmHg 71%
    04:00 +21°C° 0 mm 1 mps 724 mmHg 70%
    05:00 +23°C° 0 mm 1 mps 725 mmHg 66%
    06:00 +22°C° 0 mm 0 mps 725 mmHg 63%
    07:00 +24°C° 0 mm 0 mps 726 mmHg 60%
    08:00 +26°C° 0 mm 0 mps 726 mmHg 54%
    09:00 +29°C° 0 mm 1 mps 726 mmHg 48%
    10:00 +31°C° 0 mm 1 mps 727 mmHg 43%
    11:00 +31°C° 0.3 mm 2 mps 727 mmHg 44%
    12:00 +31°C° 0.3 mm 2 mps 726 mmHg 45%
    13:00 +31°C° 0.3 mm 2 mps 726 mmHg 46%
    14:00 +29°C° 1.8 mm 2 mps 726 mmHg 55%
    15:00 +27°C° 1.8 mm 2 mps 726 mmHg 65%
    16:00 +25°C° 1.8 mm 2 mps 726 mmHg 74%
    17:00 +25°C° 0.3 mm 2 mps 726 mmHg 74%
    18:00 +25°C° 0.3 mm 2 mps 726 mmHg 73%
    19:00 +24°C° 0.3 mm 2 mps 726 mmHg 73%
    20:00 +24°C° 0 mm 2 mps 727 mmHg 73%
    21:00 +23°C° 0 mm 2 mps 727 mmHg 73%
    22:00 +23°C° 0 mm 2 mps 727 mmHg 73%
    23:00 +21°C° 0 mm 2 mps 727 mmHg 74%

    22 July, Monday

    Time Temperature Precipitation Wind Pressure Humidity
    00:00 +21°C° 0 mm 2 mps 727 mmHg 75%
    01:00 +20°C° 0 mm 2 mps 727 mmHg 76%
    02:00 +20°C° 0 mm 2 mps 727 mmHg 76%
    03:00 +20°C° 0 mm 2 mps 727 mmHg 77%
    04:00 +20°C° 0 mm 1 mps 727 mmHg 77%
    05:00 +22°C° 0 mm 1 mps 728 mmHg 74%
    06:00 +23°C° 0 mm 1 mps 728 mmHg 70%
    07:00 +25°C° 0 mm 1 mps 729 mmHg 66%
    08:00 +26°C° 0.1 mm 2 mps 729 mmHg 63%
    09:00 +27°C° 0.1 mm 2 mps 729 mmHg 59%
    10:00 +28°C° 0.1 mm 2 mps 729 mmHg 56%
    11:00 +29°C° 0.1 mm 2 mps 729 mmHg 53%
    12:00 +29°C° 0.1 mm 2 mps 729 mmHg 50%
    13:00 +30°C° 0.1 mm 1 mps 729 mmHg 47%
    14:00 +30°C° 0.1 mm 1 mps 728 mmHg 48%
    15:00 +30°C° 0.1 mm 1 mps 728 mmHg 49%
    16:00 +29°C° 0.1 mm 1 mps 728 mmHg 50%
    17:00 +28°C° 0 mm 1 mps 728 mmHg 54%
    18:00 +27°C° 0 mm 1 mps 728 mmHg 57%
    19:00 +25°C° 0 mm 1 mps 728 mmHg 61%
    20:00 +24°C° 0 mm 2 mps 728 mmHg 63%
    21:00 +23°C° 0 mm 2 mps 728 mmHg 65%
    22:00 +20°C° 0 mm 2 mps 728 mmHg 67%
    23:00 +20°C° 0 mm 2 mps 728 mmHg 67%

    23 July, Tuesday

    Time Temperature Precipitation Wind Pressure Humidity
    00:00 +20°C° 0 mm 2 mps 728 mmHg 68%
    01:00 +19°C° 0 mm 2 mps 728 mmHg 69%
    02:00 +19°C° 0 mm 2 mps 728 mmHg 71%
    03:00 +19°C° 0 mm 2 mps 727 mmHg 72%
    04:00 +18°C° 0 mm 2 mps 727 mmHg 73%
    05:00 +20°C° 0 mm 2 mps 727 mmHg 70%
    06:00 +21°C° 0 mm 2 mps 728 mmHg 67%
    07:00 +23°C° 0 mm 2 mps 728 mmHg 63%
    08:00 +24°C° 0 mm 2 mps 728 mmHg 58%
    09:00 +26°C° 0 mm 3 mps 728 mmHg 53%
    10:00 +27°C° 0 mm 3 mps 728 mmHg 48%
    11:00 +28°C° 0 mm 3 mps 728 mmHg 44%
    12:00 +29°C° 0 mm 3 mps 727 mmHg 40%
    13:00 +30°C° 0 mm 3 mps 727 mmHg 37%
    14:00 +29°C° 0 mm 3 mps 727 mmHg 37%
    15:00 +29°C° 0 mm 4 mps 726 mmHg 38%
    16:00 +29°C° 0 mm 4 mps 726 mmHg 39%
    17:00 +27°C° 0 mm 3 mps 726 mmHg 46%
    18:00 +26°C° 0 mm 3 mps 725 mmHg 54%
    19:00 +24°C° 0 mm 2 mps 725 mmHg 61%
    20:00 +23°C° 0 mm 2 mps 725 mmHg 62%
    21:00 +21°C° 0 mm 2 mps 725 mmHg 64%
    22:00 +20°C° 0 mm 2 mps 726 mmHg 65%
    23:00 +19°C° 0 mm 2 mps 725 mmHg 65%
    Show more